Regional Weather Roundup
Issued by NWS Memphis, TN

Home | Current Version | Previous Version | Text Only | Print | Product List | Glossary On
Versions: 1 2 3 4 5 6 7 8 9 10 11 12 13 14 15 16 17 18 19 20 21 22 23 24 25 26 27 28 29 30 31 32 33 34 35 36 37 38 39 40 41 42 43 44 45 46 47 48 49 50
000
ASUS44 KMEG 281500
RWRMEG
MEMPHIS CWA HOURLY WEATHER ROUNDUP
NATIONAL WEATHER SERVICE MEMPHIS TN
1000 AM CDT FRI JUL 28 2017

...WEST TENNESSEE...

CITY           SKY/WX    TMP DP  RH WIND       PRES   REMARKS
MEMPHIS INTL   CLOUDY    77  76  96 SW8       29.90S
NWS MEMPHIS      N/A     78 N/A N/A MISG        N/A
JACKSON        CLOUDY    83  78  85 W8        29.87S HX  93


...EASTERN ARKANSAS...

CITY           SKY/WX    TMP DP  RH WIND       PRES   REMARKS
JONESBORO      CLOUDY    81  78  91 NW3       29.87S
WEST MEMPHIS   CLOUDY    77  76  96 W6        29.88F
BATESVILLE     PTSUNNY   81  73  78 W7        29.90S
WALNUT RIDGE   CLOUDY    79  73  83 NW5       29.89S
BLYTHEVILLE    CLOUDY    84  79  85 N6        29.87F HX  96
SEARCY         CLOUDY    80  77  90 MISG      29.91
STUTTGART      CLOUDY    79  66  65 SW5       29.92S
PINE BLUFF     CLOUDY    80  76  87 SW6       29.93R
MONTICELLO     CLOUDY    81  74  79 SW6       29.94F


...NORTH MISSISSIPPI...

CITY           SKY/WX    TMP DP  RH WIND       PRES   REMARKS
TUPELO         PTSUNNY   83  75  77 SW7       29.91R HX  90
BATESVILLE     RAIN      76  73  90 W10G21    29.94R
OLIVE BRANCH   LGT RAIN N/A N/A N/A MISG      29.90R
TUNICA         DRIZZLE   73  73 100 SW12      29.91F
CLARKSDALE       N/A     77  77 100 CALM      29.94S FOG
GREENWOOD      CLOUDY    82  76  81 SW7       29.94S
COLUMBUS       CLOUDY    81  77  89 SW8       29.92R
STARKVILLE     CLOUDY    79  73  83 SW3       29.95S


...SOUTHEAST MISSOURI...

CITY           SKY/WX    TMP DP  RH WIND       PRES   REMARKS
KENNETT        CLOUDY    84  75  74 N10       29.85S HX  92
MALDEN         PTSUNNY   82  73  74 N10       29.88S
WEST PLAINS    CLOUDY    78  73  84 N9        29.96S
POPLAR BLUFF   PTSUNNY   82  76  81 N9        29.87F
CAPE GIRARDEAU PTSUNNY   82  73  74 N9        29.87S


...NORTHWEST ALABAMA...

CITY           SKY/WX    TMP DP  RH WIND       PRES   REMARKS
MUSCLE SHOALS  LGT RAIN  77  73  87 SW9       29.91S


...MIDDLE TENNESSEE...

CITY           SKY/WX    TMP DP  RH WIND       PRES   REMARKS
NASHVILLE      CLOUDY    81  76  84 VRB5      29.86F
CLARKSVILLE    CLOUDY    78  74  87 CALM      29.85S


...WESTERN KENTUCKY...

CITY           SKY/WX    TMP DP  RH WIND       PRES   REMARKS
PADUCAH        CLOUDY    78  75  90 NW5       29.85S
FORT CAMPBELL  CLOUDY    78  76  95 SW6       29.84S


...CENTRAL ARKANSAS...

CITY           SKY/WX    TMP DP  RH WIND       PRES   REMARKS
LITTLE ROCK    CLOUDY    78  77  96 W5        29.91F


SKY/WX REPORTED AS FAIR MEANS FEW OR NO CLOUDS BELOW
12 THOUSAND FEET.





USA.gov is the U.S. government's official web portal to all federal, state and local government web resources and services.